Regional Weather Roundup
Issued by NWS

Home | Current Version | Previous Version | Graphics & Text | Print | Product List | Glossary On
Versions: 1 2 3 4 5 6 7 8 9 10 11 12 13 14 15 16 17 18 19 20 21 22 23 24 25 26 27 28 29 30 31 32 33 34 35 36 37 38 39 40 41 42 43 44 45 46 47 48 49 50
000
ASUS45 KBOI 220410
RWRID
WEATHER ROUNDUP FOR IDAHO
NATIONAL WEATHER SERVICE BOISE ID
900 PM MST SUN DEC 21 2014

NOTE: "FAIR" INDICATES FEW OR NO CLOUDS BELOW 12000 FEET
WITH NO SIGNIFICANT WEATHER AND/OR OBSTRUCTIONS TO VISIBILITY

IDZ012-014-220500-
SOUTHWEST IDAHO


CITY           SKY/WX    TMP DP  RH WIND       PRES   REMARKS
BOISE          LGT RAIN  41  39  93 NW5       30.10S
CALDWELL       CLOUDY    43  36  75 S3        30.13S
MOUNTAIN HOME  LGT RAIN  40  38  93 W8        30.12R WCI  34
$$

IDZ016-017-220500-
SOUTHCENTRAL IDAHO


CITY           SKY/WX    TMP DP  RH WIND       PRES   REMARKS
BURLEY         FLURRIES  37  33  85 W23G35    30.00R WCI  26
JEROME         CLOUDY    36  34  92 SW21G29   30.05R WCI  25
TWIN FALLS     LGT RAIN  39  33  79 SW24G32   30.07R WCI  28
$$

IDZ019>023-220500-
SOUTHEAST IDAHO


CITY           SKY/WX    TMP DP  RH WIND       PRES   REMARKS
IDAHO FALLS    PTCLDY    35  29  78 S9        29.91R WCI  28
POCATELLO      MOCLDY    37  36  96 SW9       29.97R WCI  30
REXBURG        CLEAR     32  28  85 CALM      29.90R
$$

IDZ006-010-011-018-031-032-220500-
CENTRAL IDAHO MOUNTAINS


CITY           SKY/WX    TMP DP  RH WIND       PRES   REMARKS
MCCALL         CLOUDY    32  31  96 CALM      30.00R
HAILEY         PTCLDY    37  28  70 N6        29.95F WCI  33
STANLEY          N/A     32  22  66 N6        29.97F WCI  26
SALMON         CLOUDY    37  28  70 SE5       29.91F WCI  34
CHALLIS        CLOUDY    35  23  61 CALM      29.92S
$$

IDZ002-004-006-007-026-220500-
NORTHERN IDAHO


CITY           SKY/WX    TMP DP  RH WIND       PRES   REMARKS
LEWISTON       CLOUDY    50  35  56 SW12      29.97R
LOWELL           N/A     43  41  93 NW3       29.99S
COEUR D`ALENE  CLOUDY    39  34  81 SW9       29.89F WCI  33
MULLAN PASS    CLOUDY    28  26  92 VRB7G18   29.84R WCI  21
$$



USA.gov is the U.S. government's official web portal to all federal, state and local government web resources and services.